Dewpoint
20 21 22 21 21 20 19 19 16 15 16 17 18 16 23 27 27 27 26 26 26 27 29 29 27 26 26 28 27 27 27 29 29 31 32 35 38 39 38 42 43 43 44 45
20 21 21 21 22 22 21 20 18 18 18 19 17 27 28 27 26 23 23 25 27 29 31 29 30 29 27 25 27 27 27 28 30 30 32 35 33 35 43 44 42 43 43 44
16 20 20 15 19 20 18 18 18 14 16 19 25 26 23 20 21 21 26 27 27 30 29 30 31 32 27 26 27 26 27 28 29 30 31 32 34 42 42 41 41 41 42 44
16 18 4 9 20 20 19 19 21 21 23 26 25 21 22 25 25 26 29 29 29 31 31 33 34 34 31 28 28 27 27 28 29 30 30 35 34 36 39 39 39 40 41 43
12 14 16 16 19 19 17 17 21 22 24 21 22 30 27 26 28 29 29 31 33 33 34 33 32 32 32 30 29 28 28 28 29 29 31 31 32 36 38 39 38 39 41 42
19 7 7 12 21 22 21 15 23 23 22 26 30 26 25 27 29 30 30 31 32 32 31 31 31 31 31 30 30 29 29 27 28 31 31 31 31 36 37 37 38 39 39 42
19 12 18 21 21 23 12 15 21 25 30 30 28 28 28 30 29 29 28 27 26 26 26 26 26 27 28 29 29 29 32 29 30 32 32 32 33 32 33 35 37 39 39 40
19 14 14 24 21 16 18 24 28 30 31 29 28 29 29 28 26 25 25 26 27 26 26 26 26 26 25 26 28 28 28 33 31 32 32 31 30 30 32 36 39 38 38 39
20 19 21 22 21 23 29 31 31 31 29 30 29 25 26 26 26 27 28 28 28 28 28 28 28 28 27 30 30 29 29 28 31 31 30 29 29 30 34 38 37 36 39 40
19 20 20 21 23 27 32 31 31 31 29 26 26 27 27 28 28 27 26 26 28 29 31 34 35 35 35 36 35 32 28 29 29 29 30 30 33 34 36 37 36 37 41 41
20 19 21 23 24 30 32 32 29 26 27 28 28 28 27 26 26 26 27 28 31 31 34 35 36 37 38 38 36 35 32 30 30 28 28 33 33 34 37 38 38 38 42 42
18 21 22 23 27 32 31 26 26 28 28 28 28 27 27 27 27 28 30 32 34 35 36 36 37 37 38 37 34 34 36 31 28 29 32 33 34 37 39 40 41 42 45 44
22 24 25 25 31 26 24 26 28 28 28 27 27 27 28 27 28 32 32 35 35 35 36 37 37 36 35 35 35 35 34 32 33 34 34 35 36 38 37 38 40 46 46 46
25 25 27 29 24 25 27 28 29 28 28 27 27 27 28 27 30 32 34 35 36 36 36 38 37 36 36 36 36 36 35 36 35 36 36 37 39 37 38 38 38 44 46 45
26 27 27 24 25 27 28 28 28 27 27 26 26 27 27 29 31 32 35 36 37 36 37 38 37 37 39 39 38 38 38 37 37 37 38 38 38 37 37 39 42 42 43 45
28 27 23 24 26 27 27 27 27 26 25 26 26 26 27 29 31 35 36 37 36 35 36 37 37 38 40 40 39 39 38 39 39 38 38 37 37 37 39 41 41 41 42 43
28 24 23 25 26 26 26 27 27 26 26 26 26 26 27 29 32 34 35 37 37 37 38 38 38 39 39 39 37 37 37 37 41 40 40 40 40 40 41 41 41 41 42 42
26 25 26 27 27 27 27 27 27 27 26 26 26 26 27 29 32 33 35 37 37 37 38 39 39 39 39 39 38 37 36 39 39 39 40 40 39 40 40 40 39 39 39 38
26 27 27 27 28 28 27 27 28 27 26 27 26 29 30 29 31 32 33 36 35 35 37 39 40 39 38 40 39 37 36 37 39 39 39 39 38 39 39 39 38 37 37 36
27 28 28 28 28 28 28 28 28 26 26 26 30 30 29 30 31 33 34 34 36 38 39 39 39 38 38 39 40 38 37 37 37 38 39 38 38 38 38 37 37 36 36 36
27 27 27 28 28 28 28 28 27 28 28 29 29 28 29 30 30 31 33 33 36 39 39 39 39 38 38 38 38 37 37 36 36 36 36 36 37 37 38 37 37 36 36 35
27 27 28 28 28 28 27 27 27 28 28 29 29 29 29 28 29 31 32 33 37 39 39 39 38 39 38 39 37 37 36 36 36 36 36 36 36 36 36 37 36 35 35 36
28 28 28 28 28 29 28 28 28 29 30 28 28 28 27 28 29 30 30 33 36 36 38 39 40 38 39 37 36 36 36 35 35 35 35 36 36 36 35 34 35 35 35 35
28 28 28 28 29 29 30 30 31 31 31 29 29 29 28 26 27 30 31 33 34 35 35 38 39 40 38 37 37 36 36 35 35 35 35 36 35 35 34 34 34 34 34 34
28 28 28 29 30 31 32 32 32 32 31 28 29 28 28 28 27 28 29 30 32 33 34 36 38 37 37 37 37 36 37 35 34 33 34 34 34 33 33 33 33 34 35 35
28 28 29 30 32 33 33 33 32 32 31 27 27 27 28 28 28 28 27 29 29 30 32 33 33 35 35 36 37 36 36 36 34 33 32 32 32 32 33 34 34 34 34 33
28 30 30 31 33 33 32 31 31 30 28 28 27 27 27 27 27 27 28 27 28 28 29 30 31 33 33 36 36 36 36 36 35 34 33 32 31 31 32 34 35 35 35 33
Lifted_Index
8 8 8 7 7 7 7 7 6 6 7 9 10 11 11 11 11 11 10 10 9 8 6 5 4 4 4 3 3 3 3 2 2 2 2 2 1 1 0 -0 -0 0 1 1
7 8 8 7 7 7 8 8 7 7 8 9 10 11 11 11 10 10 10 9 8 7 6 5 5 4 4 3 3 3 3 2 2 2 2 2 1 1 0 -0 0 1 1 2
6 7 6 6 7 8 8 9 9 8 9 10 10 11 11 10 10 10 9 8 7 6 5 5 5 5 4 4 3 3 3 2 2 2 2 2 1 1 0 1 2 2 3 3
6 6 5 6 7 8 8 9 9 9 10 10 11 11 10 10 9 9 8 7 6 6 6 6 5 5 4 4 4 4 3 2 2 2 2 2 2 1 1 2 3 3 3 3
5 5 5 5 7 8 8 8 9 10 10 10 10 10 10 10 9 9 8 7 7 7 7 6 6 5 5 5 5 4 4 2 2 2 2 2 2 2 2 3 3 4 4 4
5 4 4 5 7 8 7 7 9 10 10 10 10 10 10 10 10 9 8 8 8 7 7 7 6 6 5 5 5 4 4 3 2 2 2 2 2 3 3 4 4 4 5 5
5 4 5 6 8 8 7 7 9 10 10 10 10 10 11 11 10 9 9 9 8 8 8 7 7 6 6 5 5 5 4 4 3 2 2 3 3 3 4 4 4 5 5 6
5 5 5 7 8 8 8 8 9 10 10 10 11 11 11 11 10 9 9 9 8 8 7 7 7 7 6 6 6 5 5 5 4 3 3 4 4 4 5 5 5 5 6 6
5 5 6 7 8 8 9 9 9 10 10 10 11 11 11 10 10 9 8 8 7 7 7 6 7 7 7 6 6 6 6 5 5 4 4 5 5 5 5 5 5 5 6 6
5 5 6 8 8 9 9 9 9 10 10 11 11 11 11 10 9 9 8 7 7 6 6 6 7 7 7 7 7 7 6 6 5 5 5 5 5 5 5 5 5 5 6 6
5 6 7 8 9 9 9 9 9 10 11 12 12 11 10 10 9 8 7 7 7 6 6 6 7 7 8 7 7 7 6 6 6 6 6 5 5 5 6 6 6 6 6 7
5 6 8 8 9 9 9 9 10 11 12 12 12 11 10 9 8 8 7 7 7 6 6 6 7 7 8 8 7 7 6 6 6 6 6 6 6 6 6 6 7 7 7 8
7 7 8 9 9 9 9 9 10 12 12 12 11 10 9 9 8 7 7 7 7 7 6 6 7 7 8 8 8 7 7 7 7 6 6 6 6 6 6 6 7 7 7 8
8 8 9 9 9 9 9 10 11 12 12 12 11 10 9 8 8 7 7 8 8 7 7 7 7 7 7 7 7 7 7 7 7 7 7 7 7 7 6 7 7 7 8 8
8 8 9 8 8 9 10 11 12 12 12 11 10 10 9 8 8 7 8 8 8 8 7 7 7 7 7 7 7 7 7 7 7 7 7 8 8 7 7 8 8 8 8 9
8 8 8 9 9 9 10 11 12 12 12 11 10 10 9 9 8 8 8 8 8 8 8 7 7 7 7 7 6 7 7 7 7 7 8 8 8 7 8 8 9 9 9 10
8 8 8 9 9 10 11 12 12 12 12 11 10 10 9 9 9 8 8 9 8 8 8 8 8 7 7 7 7 7 8 8 8 8 8 8 8 8 8 9 9 10 10 11
8 8 8 9 10 11 11 12 12 12 12 11 11 10 10 9 9 9 9 9 9 8 8 8 8 8 8 8 8 8 8 9 9 8 8 8 9 9 9 9 10 10 11 11
8 8 9 9 10 11 12 12 12 11 11 11 11 10 10 10 10 10 10 10 10 9 9 9 9 9 8 8 8 8 8 9 9 9 9 9 9 9 9 10 10 11 11 12
8 9 9 10 11 11 11 11 11 11 11 11 11 11 11 10 10 10 11 11 10 10 10 10 10 10 9 9 9 9 9 9 9 9 10 10 10 11 11 11 11 12 13 13
9 9 10 10 11 11 11 11 11 11 11 11 11 11 11 11 11 11 11 11 11 10 10 10 11 11 11 10 10 11 11 10 10 10 11 11 11 12 12 12 12 13 13 14
9 9 10 10 10 10 11 11 11 11 11 11 11 11 12 12 11 11 12 12 12 11 11 11 11 12 12 12 12 12 12 12 12 12 12 12 13 13 13 13 13 13 13 13
9 9 10 10 10 10 10 10 10 10 10 11 11 11 12 12 12 12 13 13 13 12 12 11 12 12 13 13 13 13 13 14 14 14 14 14 14 14 14 14 14 14 14 14
8 9 9 9 9 9 10 10 10 10 10 11 11 12 12 12 13 13 14 14 14 13 13 12 12 13 13 14 14 14 14 15 15 15 15 15 16 16 16 16 16 16 16 16
8 8 9 9 9 9 9 9 10 10 10 10 11 12 12 13 13 14 14 15 15 15 14 13 13 14 14 15 15 15 16 16 17 17 17 17 17 17 17 17 17 18 18 18
8 8 8 8 9 9 9 9 9 9 10 10 11 11 12 13 13 14 14 15 15 15 15 15 15 15 15 15 15 16 16 17 17 18 18 18 18 18 18 18 19 19 19 19
7 7 8 8 9 9 9 9 9 9 10 10 10 11 12 12 13 13 14 14 15 16 16 16 15 15 15 15 16 16 16 17 18 18 18 19 19 19 19 19 19 20 20 20